COSMOS 249 DEB, 19362

Orbit data source: Space-Track

COSMOS 249 DEB, 19362 is space debris in LEO originally from a launch on Sun, 20 Oct 1968 UTC launched from the Tyuratam Missile And Space Complex (TTMTR). Debris objects in space refer to the collection of defunct objects orbiting the Earth. Examples of debris include non-operational satellites, rocket bodies, and fragments generated from explosions, collisions, or faulty payload assembly.

Loading next visibility...
Identifier
19362, 1968-091DJ
Orbit
LEO
Country
Flag of CISCIS
Related business
Manufacturer
Unknown
Mission
Spacecraft
Bus & Motor
Unknown
Mass
Unknown
Launch date (UTC)
1968-10-20 (58 years ago)
Launch vehicle
Unknown
Launch site
Tyuratam Missile And Space Complex (TTMTR)
Object type
Payload
Rocket body
Debris
Shape & HBR
Unknown shape, 0.1 m
Radar Cross Section
Small (<0.1 m²)

Expand to show TLE details & history
Last TLE update: 1 day ago

TLE from 1 day ago
0 COSMOS 249 DEB
1 19362U 68091DJ  26235.28951095  .00012392  00000-0  15415-2 0  9997
2 19362  62.7635 126.9384 0466788  66.4035 298.5320 14.27628132929542
Epoch: 2026-08-23T06:56Z
TLE epoch observation values (Epoch: 2026-08-23T06:56:53.746Z)
Latitude
0.00003°
Longitude
51.12677°
Altitude
653.871 km
Speed
7.608 km/s
True Right ascension
08h 27m 45s
True Declination
0° 00' 00"
Sunlit
Object was in daylight at epoch
Visualization orbit readout
Latitude
Unknown
Longitude
Unknown
Altitude
Unknown
Speed
Unknown
Apparent Right ascension
Unknown
Apparent Declination
Unknown
Sunlit
N/A
Visualization observer readout
Local Sidereal Time
03:32:32
Azimuth
Unknown
Elevation
Unknown
Doppler factor
Unknown
Orbital elements
Apogee altitude
1,133.529 km
Perigee altitude
463.532 km
Semi-major axis
7,176.668 km
Eccentricity
0.04668
Inclination
62.7635°
RAAN
126.9384°
Arg. of periapsis
66.4035°
True anomaly
293.70381°
Mean anomaly
298.532°
Eccentric anomaly
296.13086°
Mean motion
3.56992 °/min
Orbital period
100.84 mins
BSTAR
0.0015415
Loading maneuver chart data...
Computing Atmospheric mass density...
Loading historical data...
Loading historical data...
Loading historical data...
Loading historical data...
Loading historical data...
Loading historical data...
Loading historical data...

Documentation

Showing up to 5 results
|